Flag for Canada Weather past 2 weeks in Peterborough, Ontario, Canada

Now
9 °F

Light snow. Overcast.


Feels Like: -6 °F
Forecast: 3 / 16 °F
Wind: 12 mph from Northeast

Location: Peterborough Airport

Current Time: Jan 27, 2015 at 6:05:17 AM

Latest Report: Jan 27, 2015 at 5:00 AM


Visibility: 9 mi

Pressure: 30.06 "Hg

Humidity: 56%

Dew point: -4 °F

Location of PeterboroughLocation

Historic Weather in Peterborough — Graph

°F

Peterborough temperature yesterday

Maximum temperature yesterday: 14 °F (at 3:00 PM)
Minimum temperature yesterday: 0 °F (at 8:00 AM)
Average temperature yesterday: 7 °F

Past Weeks' High & Low Weather Summary

 TemperatureHumidityPressure
High39 °F (Jan 18, 4:00 AM)100% (Jan 12, 8:55 AM)30.86 "Hg (Jan 12, 8:55 AM)
Low-17 °F (Jan 13, 7:00 AM)39% (Jan 13, 4:00 PM)29.44 "Hg (Jan 24, 4:00 PM)
Average15 °F78%30.07 "Hg
* Reported Jan 12 5:00 AM — Jan 27 5:00 AM, Peterborough, Weather by CustomWeather, © 2014

Note: Actual official high and low records may vary slightly from our data, if they occured in-between our weather recording intervals... More about our weather records

Advertising

Peterborough weather history for previous 24 hours

 ConditionsComfort  
Time TempWeatherWind HumidityBarometerVisibility
5:00 AM
Jan 27
9 °FLight snow. Overcast.12 mph56%30.06 "Hg9 mi
4:03 AM9 °FLight snow. Overcast.12 mph51%30.05 "Hg9 mi
3:00 AM9 °FOvercast.10 mph61%30.04 "Hg9 mi
2:45 AM9 °FOvercast.9 mph61%30.04 "Hg9 mi
2:00 AM9 °FLight snow. Passing clouds.9 mph56%30.03 "Hg9 mi
1:00 AM9 °FLight snow. Overcast.14 mph61%30.04 "Hg7 mi
12:45 AM9 °FLight snow. Mostly cloudy.9 mph56%30.05 "Hg9 mi
12:00 AM9 °FLight snow. Mostly cloudy.9 mph66%30.05 "Hg9 mi
11:00 PM
Jan 26
9 °FLight snow. Overcast.10 mph66%30.06 "Hg7 mi
10:00 PM9 °FLight snow. Mostly cloudy.12 mph61%30.07 "Hg9 mi
9:00 PM10 °FOvercast.14 mph52%30.07 "Hg9 mi
8:03 PM12 °FOvercast.10 mph48%30.08 "Hg9 mi
7:00 PM14 °FMostly cloudy.15 mph41%30.07 "Hg9 mi
6:00 PM14 °FMostly cloudy.12 mph44%30.05 "Hg9 mi
5:00 PM14 °FScattered clouds.12 mph41%30.04 "Hg9 mi
4:00 PM14 °FBroken clouds.12 mph44%30.04 "Hg9 mi
3:00 PM14 °FOvercast.14 mph48%30.04 "Hg9 mi
2:00 PM12 °FOvercast.12 mph52%30.04 "Hg9 mi
1:00 PM10 °FScattered clouds.13 mph56%30.06 "Hg9 mi
12:00 PM7 °FScattered clouds.10 mph66%30.09 "Hg9 mi
11:00 AM5 °FScattered clouds.12 mph66%30.12 "Hg9 mi
10:00 AM1 °FPartly sunny.8 mph71%30.11 "Hg9 mi
9:00 AM0 °FSunny.9 mph78%30.12 "Hg9 mi
8:00 AM0 °FSunny.7 mph78%30.11 "Hg9 mi
7:00 AM1 °FMostly cloudy.8 mph71%30.11 "Hg9 mi
6:00 AM1 °FOvercast.8 mph78%30.11 "Hg9 mi
Weather by CustomWeather, © 2014

See weather overviewHow to use our weather pages